Carroll, IA

9:11 PM CDT on April 26, 2018 (GMT -0500)
Neu

Weather History for KCIN - October, 2012

Change the Weather History Date:

Thursday, October 25, 2012

  Actual Average Record
Temperature  
Mean Temperature 40 °F -  
Max Temperature 46 °F 59 °F 79 °F (1989)
Min Temperature 33 °F 36 °F 20 °F (1966)
Degree Days  
Heating Degree Days 26    
Moisture  
Dew Point 36 °F    
Average Humidity 87    
Maximum Humidity 100    
Minimum Humidity 70    
Precipitation  
Precipitation 0.96 in - - ()
Sea Level Pressure  
Sea Level Pressure 29.96 in    
Wind  
Wind Speed 21 mph (NNW)    
Max Wind Speed 32 mph    
Max Gust Speed 41 mph    
Visibility 7 miles    
Events Rain    
Averages and records for this station are not official NWS values.
T = Trace of Precipitation, MM = Missing Value Source: NWS Daily Summary

Daily Weather History Graph

Daily Weather History Graph

Search for Another Location

Airport or City:

Astronomy

Oct. 25, 2012 Rise Set
Actual Time 7:44 AM CDT 6:21 PM CDT
Civil Twilight 7:15 AM CDT 6:50 PM CDT
Nautical Twilight 6:42 AM CDT 7:22 PM CDT
Astronomical Twilight 6:10 AM CDT 7:55 PM CDT
Moon 4:11 PM CDT (10/25) 3:37 AM CDT (10/25)
Length of Visible Light 11h 34m
Length of Day
10h 37m
Waxing Gibbous, 84% of the Moon is Illuminated
Oct 25
Waxing Gibbous
Oct 29
Full
Nov 6
Last Quarter
Nov 13
New
Nov 20
First Quarter

Hourly Weather History & Observations

Time (CDT) Temp. Windchill Dew Point Humidity Pressure Visibility Wind Dir Wind Speed Gust Speed Precip Events Conditions
12:15 AM 46.4 °F 39.2 °F 46.4 °F 100% 29.70 in 3.0 mi NNE 18.4 mph 25.3 mph N/A Rain Light Rain
12:35 AM 46.4 °F 40.1 °F 46.4 °F 100% 29.72 in 3.0 mi North 15.0 mph - N/A Rain Heavy Rain
12:55 AM 46.4 °F 40.1 °F 46.4 °F 100% 29.70 in 4.0 mi North 15.0 mph - 0.17 in Rain Rain
1:15 AM 46.4 °F 40.1 °F 46.4 °F 100% 29.71 in 4.0 mi North 15.0 mph - N/A Rain Light Rain
1:35 AM 46.4 °F 39.5 °F 46.4 °F 100% 29.69 in 6.0 mi NNE 17.3 mph - N/A   Overcast
1:55 AM 46.4 °F 39.5 °F 44.6 °F 93% 29.69 in 3.0 mi North 17.3 mph 25.3 mph 0.05 in Rain Light Rain
2:35 AM 44.6 °F 37.4 °F 44.6 °F 100% 29.67 in 1.5 mi North 16.1 mph - N/A   Overcast
2:55 AM 44.6 °F 35.3 °F 44.6 °F 100% 29.76 in 2.0 mi WNW 26.5 mph 34.5 mph 0.02 in   Overcast
3:15 AM 44.6 °F 36.1 °F 44.6 °F 100% 29.65 in 2.0 mi North 21.9 mph - N/A Rain Rain
3:35 AM 44.6 °F 34.7 °F 44.6 °F 100% 29.76 in 7.0 mi WNW 29.9 mph 36.8 mph N/A   Overcast
3:55 AM 42.8 °F 34.0 °F 42.8 °F 100% 29.70 in 2.5 mi North 20.7 mph 32.2 mph 0.36 in   Overcast
4:15 AM 42.8 °F 33.3 °F 42.8 °F 100% 29.60 in 3.0 mi NNE 24.2 mph 31.1 mph N/A Rain Heavy Rain
4:35 AM 42.8 °F 36.6 °F 42.8 °F 100% 29.65 in 10.0 mi NNE 11.5 mph - N/A Rain Light Rain
4:55 AM 42.8 °F 34.5 °F 42.8 °F 100% 29.70 in 10.0 mi NW 18.4 mph - 0.14 in   Overcast
5:15 AM 42.8 °F 33.8 °F 42.8 °F 100% 29.70 in 3.0 mi NNW 21.9 mph 29.9 mph N/A Rain Rain
5:35 AM 42.8 °F 33.3 °F 42.8 °F 100% 29.72 in 5.0 mi NNW 24.2 mph 31.1 mph N/A Rain Light Rain
5:55 AM 41.0 °F 30.9 °F 41.0 °F 100% 29.72 in 3.0 mi NNW 24.2 mph 33.4 mph 0.08 in Rain Heavy Rain
6:35 AM 39.2 °F 27.8 °F 39.2 °F 100% 29.74 in - NNW 27.6 mph 34.5 mph N/A   Overcast
6:55 AM 39.2 °F 27.8 °F 37.4 °F 93% 29.76 in 6.0 mi NNW 27.6 mph 39.1 mph 0.04 in Rain Light Rain
7:15 AM 37.4 °F 24.8 °F 37.4 °F 100% 29.76 in 3.0 mi NNW 31.1 mph 41.4 mph N/A Rain Light Rain
7:35 AM 37.4 °F 25.6 °F 37.4 °F 100% 29.78 in 4.0 mi NNW 26.5 mph 35.7 mph N/A Rain Rain
7:55 AM 39.2 °F 28.7 °F 37.4 °F 93% 29.78 in 10.0 mi NNW 23.0 mph 31.1 mph 0.10 in Rain Light Rain
8:35 AM 39.2 °F 28.7 °F 37.4 °F 93% 29.80 in 4.0 mi NNW 23.0 mph 29.9 mph N/A Rain Light Rain
8:55 AM 37.4 °F 26.9 °F 37.4 °F 100% 29.82 in 3.0 mi NNW 20.7 mph 32.2 mph N/A Rain Light Rain
9:15 AM 37.4 °F 25.4 °F 35.6 °F 93% 29.84 in 3.0 mi NNW 27.6 mph 36.8 mph N/A Rain Light Rain
9:55 AM 37.4 °F 25.9 °F 35.6 °F 93% 29.86 in 1.5 mi NNW 25.3 mph 33.4 mph N/A Rain Light Rain
10:15 AM 37.4 °F 25.2 °F 35.6 °F 93% 29.88 in 1.2 mi NNW 28.8 mph 35.7 mph N/A   Overcast
10:35 AM 37.4 °F 25.2 °F 35.6 °F 93% 29.89 in 2.0 mi NW 28.8 mph 36.8 mph N/A Rain Light Rain
10:55 AM 37.4 °F 25.4 °F 35.6 °F 93% 29.91 in 2.5 mi NW 27.6 mph 35.7 mph N/A Rain Light Rain
11:15 AM 37.4 °F 24.6 °F 35.6 °F 93% 29.92 in 4.0 mi NNW 32.2 mph - N/A Rain Light Rain
11:35 AM 37.4 °F - 35.6 °F 93% 29.94 in 5.0 mi North - - N/A Rain Light Rain
11:55 AM 37.4 °F 25.2 °F 35.6 °F 93% 29.95 in 10.0 mi NW 28.8 mph 38.0 mph N/A   Overcast
12:15 PM 37.4 °F 25.2 °F 35.6 °F 93% 29.96 in 10.0 mi NW 28.8 mph 39.1 mph N/A   Overcast
12:35 PM 37.4 °F 25.2 °F 33.8 °F 87% 29.97 in 10.0 mi NW 28.8 mph 39.1 mph N/A   Overcast
12:55 PM 37.4 °F 24.6 °F 33.8 °F 87% 29.97 in 10.0 mi NNW 32.2 mph - N/A   Overcast
1:15 PM 37.4 °F 24.6 °F 33.8 °F 87% 29.99 in 10.0 mi NNW 32.2 mph 40.3 mph N/A   Overcast
1:55 PM 37.4 °F 25.0 °F 33.8 °F 87% 30.01 in 10.0 mi NW 29.9 mph 36.8 mph N/A   Overcast
2:15 PM 37.4 °F 25.6 °F 33.8 °F 87% 30.01 in 10.0 mi NNW 26.5 mph 34.5 mph N/A   Overcast
2:35 PM 37.4 °F 26.9 °F 33.8 °F 87% 30.03 in 10.0 mi NNW 20.7 mph 32.2 mph N/A   Overcast
2:55 PM 39.2 °F 28.7 °F 33.8 °F 81% 30.04 in 10.0 mi NW 23.0 mph 31.1 mph N/A   Overcast
3:15 PM 39.2 °F 29.0 °F 33.8 °F 81% 30.04 in 10.0 mi NW 21.9 mph 34.5 mph N/A   Overcast
3:35 PM 39.2 °F 28.3 °F 32.0 °F 75% 30.05 in 10.0 mi NNW 25.3 mph - N/A   Overcast
3:55 PM 39.2 °F 29.6 °F 32.0 °F 75% 30.07 in 10.0 mi NW 19.6 mph 29.9 mph N/A   Overcast
4:15 PM 39.2 °F 28.7 °F 32.0 °F 75% 30.08 in 10.0 mi NW 23.0 mph - N/A   Overcast
4:35 PM 37.4 °F 26.4 °F 32.0 °F 81% 30.10 in 10.0 mi NW 23.0 mph 31.1 mph N/A   Overcast
4:55 PM 37.4 °F 26.4 °F 32.0 °F 81% 30.11 in 10.0 mi NW 23.0 mph 29.9 mph N/A   Overcast
5:15 PM 37.4 °F 25.4 °F 32.0 °F 81% 30.13 in 10.0 mi NW 27.6 mph - N/A   Overcast
5:35 PM 37.4 °F 26.4 °F 30.2 °F 75% 30.14 in 10.0 mi NNW 23.0 mph - N/A   Overcast
5:55 PM 37.4 °F 27.5 °F 30.2 °F 75% 30.16 in 10.0 mi NW 18.4 mph 31.1 mph N/A   Overcast
6:15 PM 37.4 °F 27.8 °F 30.2 °F 75% 30.17 in 10.0 mi NW 17.3 mph 26.5 mph N/A   Overcast
6:35 PM 37.4 °F 27.2 °F 30.2 °F 75% 30.18 in 10.0 mi NW 19.6 mph 31.1 mph N/A   Overcast
6:55 PM 37.4 °F 28.2 °F 30.2 °F 75% 30.19 in 10.0 mi NW 16.1 mph 23.0 mph N/A   Overcast
7:15 PM 37.4 °F 26.6 °F 30.2 °F 75% 30.19 in 10.0 mi NW 21.9 mph - N/A   Overcast
7:35 PM 37.4 °F 26.6 °F 28.4 °F 70% 30.21 in 10.0 mi NNW 21.9 mph 32.2 mph N/A   Overcast
7:55 PM 37.4 °F 27.5 °F 28.4 °F 70% 30.23 in 10.0 mi NNW 18.4 mph 28.8 mph N/A   Overcast
8:15 PM 35.6 °F 25.9 °F 30.2 °F 81% 30.24 in 10.0 mi NW 16.1 mph 21.9 mph N/A   Overcast
8:35 PM 37.4 °F 28.2 °F 30.2 °F 75% 30.24 in 10.0 mi NW 16.1 mph - N/A   Overcast
8:55 PM 37.4 °F 27.8 °F 28.4 °F 70% 30.25 in 10.0 mi NNW 17.3 mph 25.3 mph N/A   Overcast
9:15 PM 37.4 °F 27.8 °F 28.4 °F 70% 30.25 in 10.0 mi NW 17.3 mph 24.2 mph N/A   Overcast
9:35 PM 37.4 °F 27.8 °F 30.2 °F 75% 30.25 in 10.0 mi NW 17.3 mph 23.0 mph N/A   Overcast
9:55 PM 37.4 °F 27.8 °F 28.4 °F 70% 30.26 in 10.0 mi NW 17.3 mph 23.0 mph N/A   Overcast
10:15 PM 35.6 °F 25.5 °F 28.4 °F 75% 30.26 in 10.0 mi NW 17.3 mph - N/A   Overcast
10:35 PM 35.6 °F 25.9 °F 28.4 °F 75% 30.28 in 10.0 mi NW 16.1 mph 21.9 mph N/A   Overcast
10:55 PM 35.6 °F 26.6 °F 28.4 °F 75% 30.28 in 10.0 mi NW 13.8 mph - N/A   Overcast
11:15 PM 33.8 °F 25.3 °F 28.4 °F 81% 30.29 in 10.0 mi NW 11.5 mph - N/A   Mostly Cloudy
11:55 PM 35.6 °F 27.1 °F 28.4 °F 75% 30.29 in 10.0 mi NW 12.7 mph - N/A   Overcast